• In Belgium
  • List of Countries
  • For 7 days
  • Water Temperature
  • Satellite Maps
  • Weather Map
  • Weather Widgets
  • user-avatar
    Login

    Hourly Weather Izegem

    Today, 18 September, Tuesday

    Time Temperature Precipitation Wind Pressure Humidity
    00:00 +19°C° 0 mm 5 mps 756 mmHg 45%
    01:00 +19°C° 0 mm 5 mps 755 mmHg 45%
    02:00 +19°C° 0 mm 5 mps 755 mmHg 45%
    03:00 +20°C° 0 mm 6 mps 755 mmHg 46%
    04:00 +19°C° 0 mm 6 mps 755 mmHg 51%
    05:00 +19°C° 0 mm 6 mps 755 mmHg 57%
    06:00 +17°C° 0 mm 6 mps 755 mmHg 64%
    07:00 +19°C° 0 mm 6 mps 755 mmHg 66%
    08:00 +20°C° 0 mm 7 mps 756 mmHg 68%
    09:00 +21°C° 0 mm 8 mps 756 mmHg 70%
    10:00 +22°C° 0 mm 8 mps 756 mmHg 67%
    11:00 +22°C° 0 mm 8 mps 757 mmHg 65%
    12:00 +23°C° 0 mm 8 mps 757 mmHg 61%
    13:00 +23°C° 0 mm 8 mps 757 mmHg 61%
    14:00 +23°C° 0 mm 8 mps 757 mmHg 60%
    15:00 +23°C° 0 mm 8 mps 757 mmHg 60%
    16:00 +22°C° 0 mm 7 mps 757 mmHg 65%
    17:00 +21°C° 0 mm 5 mps 758 mmHg 70%
    18:00 +19°C° 0 mm 4 mps 758 mmHg 74%
    19:00 +19°C° 0 mm 4 mps 758 mmHg 77%
    20:00 +18°C° 0 mm 3 mps 759 mmHg 80%
    21:00 +17°C° 0 mm 3 mps 759 mmHg 83%
    22:00 +17°C° 0 mm 3 mps 759 mmHg 84%
    23:00 +17°C° 0 mm 3 mps 759 mmHg 85%

    Tomorrow, 19 September, Wednesday

    Time Temperature Precipitation Wind Pressure Humidity
    00:00 +16°C° 0 mm 3 mps 759 mmHg 87%
    01:00 +16°C° 0 mm 3 mps 759 mmHg 88%
    02:00 +16°C° 0 mm 3 mps 759 mmHg 89%
    03:00 +16°C° 0 mm 3 mps 759 mmHg 91%
    04:00 +16°C° 0 mm 3 mps 759 mmHg 92%
    05:00 +15°C° 0 mm 4 mps 759 mmHg 93%
    06:00 +15°C° 0 mm 4 mps 759 mmHg 94%
    07:00 +17°C° 0 mm 5 mps 759 mmHg 87%
    08:00 +19°C° 0 mm 5 mps 760 mmHg 80%
    09:00 +21°C° 0 mm 6 mps 760 mmHg 73%
    10:00 +22°C° 0 mm 6 mps 760 mmHg 68%
    11:00 +22°C° 0 mm 6 mps 760 mmHg 63%
    12:00 +23°C° 0 mm 7 mps 760 mmHg 58%
    13:00 +24°C° 0 mm 7 mps 760 mmHg 57%
    14:00 +24°C° 0 mm 7 mps 760 mmHg 57%
    15:00 +24°C° 0 mm 7 mps 759 mmHg 57%
    16:00 +23°C° 0 mm 6 mps 760 mmHg 60%
    17:00 +22°C° 0 mm 5 mps 760 mmHg 64%
    18:00 +21°C° 0 mm 5 mps 760 mmHg 67%
    19:00 +20°C° 0 mm 5 mps 760 mmHg 70%
    20:00 +19°C° 0 mm 5 mps 760 mmHg 73%
    21:00 +19°C° 0 mm 5 mps 761 mmHg 76%
    22:00 +17°C° 0 mm 5 mps 761 mmHg 79%
    23:00 +17°C° 0 mm 5 mps 761 mmHg 82%

    Day after tomorrow, 20 September, Thursday

    Time Temperature Precipitation Wind Pressure Humidity
    00:00 +17°C° 0 mm 4 mps 761 mmHg 85%
    01:00 +17°C° 0 mm 4 mps 760 mmHg 87%
    02:00 +17°C° 0 mm 4 mps 760 mmHg 89%
    03:00 +15°C° 0 mm 4 mps 760 mmHg 91%
    04:00 +15°C° 0 mm 4 mps 760 mmHg 92%
    05:00 +15°C° 0 mm 5 mps 760 mmHg 92%
    06:00 +15°C° 0 mm 5 mps 760 mmHg 93%
    07:00 +16°C° 0 mm 6 mps 760 mmHg 87%
    08:00 +19°C° 0 mm 6 mps 760 mmHg 80%
    09:00 +20°C° 0 mm 7 mps 760 mmHg 74%
    10:00 +21°C° 0 mm 7 mps 760 mmHg 72%
    11:00 +21°C° 0 mm 7 mps 759 mmHg 69%
    12:00 +22°C° 0 mm 7 mps 759 mmHg 67%
    13:00 +22°C° 0 mm 7 mps 759 mmHg 66%
    14:00 +23°C° 0 mm 6 mps 758 mmHg 64%
    15:00 +23°C° 0 mm 6 mps 757 mmHg 63%
    16:00 +22°C° 0 mm 5 mps 757 mmHg 66%
    17:00 +21°C° 0 mm 4 mps 757 mmHg 69%
    18:00 +20°C° 0 mm 3 mps 756 mmHg 72%
    19:00 +20°C° 0 mm 4 mps 756 mmHg 70%
    20:00 +20°C° 0 mm 4 mps 755 mmHg 68%
    21:00 +20°C° 0 mm 5 mps 755 mmHg 67%
    22:00 +20°C° 0 mm 6 mps 754 mmHg 65%
    23:00 +20°C° 0 mm 6 mps 753 mmHg 63%

    21 September, Friday

    Time Temperature Precipitation Wind Pressure Humidity
    00:00 +20°C° 0 mm 7 mps 753 mmHg 61%
    01:00 +20°C° 0 mm 7 mps 752 mmHg 63%
    02:00 +20°C° 0 mm 8 mps 751 mmHg 65%
    03:00 +20°C° 0 mm 8 mps 751 mmHg 66%
    04:00 +18°C° 1.4 mm 9 mps 750 mmHg 71%
    05:00 +18°C° 1.4 mm 9 mps 750 mmHg 75%
    06:00 +18°C° 1.4 mm 10 mps 749 mmHg 80%
    07:00 +17°C° 2.6 mm 9 mps 750 mmHg 79%
    08:00 +15°C° 2.6 mm 8 mps 751 mmHg 77%
    09:00 +14°C° 2.6 mm 7 mps 752 mmHg 76%
    10:00 +14°C° 0.2 mm 7 mps 752 mmHg 70%
    11:00 +15°C° 0.2 mm 8 mps 753 mmHg 65%
    12:00 +15°C° 0.2 mm 8 mps 754 mmHg 59%
    13:00 +15°C° 0 mm 8 mps 754 mmHg 54%
    14:00 +16°C° 0 mm 9 mps 755 mmHg 49%
    15:00 +16°C° 0 mm 9 mps 755 mmHg 45%
    16:00 +15°C° 0 mm 9 mps 756 mmHg 47%
    17:00 +13°C° 0 mm 8 mps 756 mmHg 50%
    18:00 +12°C° 0 mm 8 mps 757 mmHg 52%
    19:00 +12°C° 0 mm 8 mps 758 mmHg 53%
    20:00 +12°C° 0 mm 7 mps 759 mmHg 54%
    21:00 +11°C° 0 mm 7 mps 760 mmHg 54%
    22:00 +11°C° 0 mm 7 mps 761 mmHg 57%
    23:00 +11°C° 0 mm 6 mps 761 mmHg 60%

    22 September, Saturday

    Time Temperature Precipitation Wind Pressure Humidity
    00:00 +10°C° 0 mm 6 mps 762 mmHg 63%
    01:00 +10°C° 0 mm 6 mps 762 mmHg 65%
    02:00 +10°C° 0 mm 6 mps 763 mmHg 67%
    03:00 +9°C° 0 mm 6 mps 763 mmHg 70%
    04:00 +9°C° 0 mm 6 mps 763 mmHg 71%
    05:00 +9°C° 0 mm 5 mps 764 mmHg 73%
    06:00 +9°C° 0 mm 5 mps 764 mmHg 74%
    07:00 +10°C° 0 mm 5 mps 764 mmHg 70%
    08:00 +13°C° 0 mm 6 mps 764 mmHg 65%
    09:00 +14°C° 0 mm 6 mps 764 mmHg 60%
    10:00 +15°C° 0.1 mm 6 mps 764 mmHg 58%
    11:00 +15°C° 0.1 mm 6 mps 764 mmHg 56%
    12:00 +16°C° 0.1 mm 6 mps 765 mmHg 54%
    13:00 +16°C° 0 mm 5 mps 764 mmHg 52%
    14:00 +16°C° 0 mm 5 mps 764 mmHg 51%
    15:00 +17°C° 0 mm 5 mps 764 mmHg 49%
    16:00 +15°C° 0 mm 4 mps 764 mmHg 54%
    17:00 +14°C° 0 mm 3 mps 764 mmHg 60%
    18:00 +14°C° 0 mm 2 mps 764 mmHg 65%
    19:00 +13°C° 0.4 mm 3 mps 763 mmHg 69%
    20:00 +13°C° 0.4 mm 3 mps 763 mmHg 72%
    21:00 +12°C° 0.4 mm 3 mps 763 mmHg 76%
    22:00 +12°C° 0.8 mm 4 mps 762 mmHg 79%
    23:00 +12°C° 0.8 mm 5 mps 761 mmHg 82%

    23 September, Sunday

    Time Temperature Precipitation Wind Pressure Humidity
    00:00 +11°C° 0.8 mm 6 mps 760 mmHg 85%
    01:00 +11°C° 0.4 mm 7 mps 758 mmHg 80%
    02:00 +11°C° 0.4 mm 9 mps 756 mmHg 76%
    03:00 +11°C° 0.4 mm 10 mps 754 mmHg 72%
    04:00 +12°C° 0.3 mm 10 mps 752 mmHg 69%
    05:00 +12°C° 0.3 mm 11 mps 751 mmHg 67%
    06:00 +13°C° 0.3 mm 11 mps 749 mmHg 64%
    07:00 +14°C° 0.1 mm 12 mps 748 mmHg 67%
    08:00 +17°C° 0.1 mm 13 mps 746 mmHg 70%
    09:00 +18°C° 0.1 mm 14 mps 745 mmHg 72%
    10:00 +18°C° 0.4 mm 15 mps 744 mmHg 69%
    11:00 +18°C° 0.4 mm 15 mps 743 mmHg 66%
    12:00 +16°C° 0.4 mm 16 mps 742 mmHg 63%
    13:00 +15°C° 0.1 mm 16 mps 740 mmHg 63%
    14:00 +14°C° 0.1 mm 17 mps 739 mmHg 62%
    15:00 +13°C° 0.1 mm 17 mps 738 mmHg 61%
    16:00 +11°C° 0.6 mm 16 mps 738 mmHg 67%
    17:00 +11°C° 0.6 mm 16 mps 737 mmHg 72%
    18:00 +11°C° 0.6 mm 15 mps 737 mmHg 78%
    19:00 +11°C° 1 mm 17 mps 740 mmHg 77%
    20:00 +11°C° 1 mm 18 mps 742 mmHg 76%
    21:00 +11°C° 1 mm 20 mps 744 mmHg 75%
    22:00 +11°C° 0.8 mm 19 mps 747 mmHg 75%
    23:00 +10°C° 0.8 mm 17 mps 750 mmHg 74%
    Show more